Regional Weather Roundup
Issued by NWS

Home | Current Version | Previous Version | Text Only | Print | Product List | Glossary Off
Versions: 1 2 3 4 5 6 7 8 9 10 11 12 13 14 15 16 17 18 19 20 21 22 23 24 25 26 27 28 29 30 31 32 33 34 35 36 37 38 39 40 41 42 43 44 45 46 47 48 49 50

000
ASUS43 KMPX 261010
RWRMN
WEATHER ROUNDUP FOR MINNESOTA
NATIONAL WEATHER SERVICE TWIN CITIES/CHANHASSEN MN
500 AM CDT TUE JUL 26 2016


NOTE: "FAIR" INDICATES FEW OR NO CLOUDS BELOW 12,000 FEET WITH NO
SIGNIFICANT WEATHER AND/OR OBSTRUCTIONS TO VISIBILITY. N/A MEANS
CURRENT SKY AND/OR WEATHER CONDITIONS ARE NOT AVAILABLE.

MNZ060>063-068>070-261100-
   Twin Cities Metro

CITY           SKY/WX    TMP DP  RH WIND       PRES   REMARKS
TWIN CITIES    PTCLDY    73  64  73 SW5       30.04S
ST PAUL        CLEAR     68  66  93 SE6       30.04S
CRYSTAL        CLEAR     71  63  75 S6        30.02S
BLAINE         CLEAR     72  66  83 S7        30.03S
LAKEVILLE      CLEAR     64  64 100 CALM      30.05S
EDEN PRAIRIE   PTCLDY    69  65  86 S6        30.03S
LAKEVILLE      CLEAR     64  64 100 CALM      30.05S
SOUTH ST PAUL  PTCLDY    69  66  88 SE3       30.04S
LAKE ELMO      FAIR      64  64 100 S3        30.05S
$$
MNZ001>005-007-008-013>017-022>024-027-028-261100-
   Northwest Minnesota

CITY           SKY/WX    TMP DP  RH WIND       PRES   REMARKS
BEMIDJI        CLEAR     63  63 100 CALM      29.96S
HALLOCK        CLEAR     63  61  94 CALM      29.94S
ROSEAU         CLEAR     61  54  77 CALM      29.96R HAZE
WARROAD        CLEAR     61  55  82 CALM      29.95F
THIEF RVR FALL CLEAR     68  65  90 NE8       29.95S
CROOKSTON      CLEAR     68  66  94 E7        29.93S
FOSSTON        CLEAR     61  59  94 CALM      29.95S
DETROIT LAKES  CLOUDY    72  63  73 SW7       29.97S
MOORHEAD       CLOUDY    70  64  83 S6        29.93R
PARK RAPIDS    CLEAR     69  62  78 S5        29.96F
MAHNOMEN       FAIR      67  63  87 S7        29.94S
$$
MNZ006-009>011-018-025>026-261100-
   North Central Minnesota

CITY           SKY/WX    TMP DP  RH WIND       PRES   REMARKS
BAUDETTE       FOG       59  59 100 CALM      29.95F VSB 1/4
FLAG ISLAND    CLEAR     70  64  83 N5        29.95S
INTL FALLS     CLOUDY    61  59  93 CALM      29.96F
WASKISH        CLEAR     64  63  94 CALM      29.95S
BIG FORK       PTCLDY    64  63  94 CALM      29.97F
LONGVILLE      CLOUDY    72  63  73 CALM      29.97S
GRAND RAPIDS   MOCLDY    68  65  90 S5        29.98F
ORR            CLOUDY    64  61  88 CALM      29.97R
COOK           CLOUDY    64  63  94 CALM      30.00S
WALKER         FAIR      69  63  81 SW3       29.96S
$$
MNZ012-019>021-037-261100-
   Northeast Minnesota

CITY           SKY/WX    TMP DP  RH WIND       PRES   REMARKS
DULUTH         PTCLDY    70  65  84 SW9       30.00S
ELY            TSTM      64  63  94 CALM      30.02R
HIBBING        CLOUDY    60  60 100 CALM      29.98S
EVELETH        MOCLDY    65  64  98 NE5G17    30.01R
DULUTH HARBOR  MOCLDY    70  66  88 SW9       29.97
TWO HARBORS    CLEAR     70  64  83 CALM      29.97R
SILVER BAY     PTCLDY    61  59  94 CALM      29.97R
GRAND MARAIS     N/A     59  58  96 CALM      29.96R
G MARAIS ARPRT CLOUDY    61  55  82 CALM      30.01R
$$
MNZ029>031-032-039>041-046>048-054>057-064-261100-
   West Central Minnesota

CITY           SKY/WX    TMP DP  RH WIND       PRES   REMARKS
FERGUS FALLS   CLOUDY    70  63  78 CALM      29.99R
WHEATON        PTCLDY    70  64  83 NW5       29.98R
MORRIS         CLEAR     66  64  94 S8        29.96F
ALEXANDRIA     CLEAR     72  62  71 S14       30.00F
ELBOW LAKE     MOCLDY    67  64  89 S6        29.98R
WADENA         PTCLDY    66  61  82 SW5       29.97S
GLENWOOD       CLEAR     68  64  88 S13       30.01F
APPLETON       CLEAR     72  63  73 S8        29.98F
BENSON         CLEAR     66  61  82 SW8       29.99F
ORTONVILLE     CLEAR     68  61  77 S6        29.97F
MADISON        CLEAR     66  63  88 S7        29.99F
WILLMAR        FAIR      68  64  88 S3        30.03F
$$
MNZ033>034-036-042>043-049>051-058-059-261100-
   Central Minnesota

CITY           SKY/WX    TMP DP  RH WIND       PRES   REMARKS
ST CLOUD       CLOUDY    68  67  96 S6        30.01F
SAUK CENTRE    FAIR      65  62  91 S6        30.01S
PAYNESVILLE    CLEAR     68  64  87 CALM      30.02F
AITKIN         MOCLDY    73  63  68 S6        29.97F
PINE RIVER     CLOUDY    66  63  88 CALM      30.00F
BRAINERD       MOCLDY    70  64  81 S7        29.99S
STAPLES        PTCLDY    64  63  94 S7        29.98S
LONG PRAIRIE   FAIR      66  63  88 S8        30.00F
LITTLE FALLS   PTCLDY    64  61  88 S5        30.01S
LITCHFIELD     CLEAR     70  66  88 S3        30.03F
BUFFALO        PTCLDY    69  64  85 CALM      30.04S
MAPLE LAKE     PTCLDY    69  66  90 CALM      30.03F
HUTCHINSON     CLEAR     69  65  87 CALM      30.04S
$$
MNZ037-044-045-052-053-261100-
   East Central Minnesota

CITY           SKY/WX    TMP DP  RH WIND       PRES   REMARKS
PRINCETON      PTCLDY    70  64  83 S3        30.02S
MORA           CLEAR     64  64 100 CALM      30.02F
CAMBRIDGE      MOCLDY    72  63  73 S6        30.00F
RUSH CITY      MOCLDY    67  64  89 S5        30.02S
MOOSE LAKE     PTCLDY    63  63 100 CALM      29.98F
HINCKLEY       CLOUDY    64  64 100 CALM      30.01S
CLOQUET        MOCLDY    68  63  83 SW7       29.99F
MCGREGOR       PTCLDY    68  64  88 S3        29.99F
$$
MNZ071>073-080-081-089-090-097-098-261100-
   Southwest Minnesota

CITY           SKY/WX    TMP DP  RH WIND       PRES   REMARKS
MONTEVIDEO     CLEAR     66  63  88 SW7       30.02F
GRANITE FALLS  CLEAR     66  64  95 S6        30.03F
CANBY          PTCLDY    74  62  65 SW12G21   30.00F
MARSHALL       CLEAR     73  64  73 SW13G20   30.01F
REDWOOD FALLS  CLEAR     68  62  81 SW9       30.03S
OLIVIA         CLEAR     68  63  83 SW5       30.03S
PIPESTONE      CLEAR     66  63  88 S7        30.08S
WINDOM         CLEAR     68  63  83 SW6       30.07F
WORTHINGTON    CLEAR     69  64  84 SW10      30.09S
JACKSON        CLEAR     68  61  77 SW7       30.09S
TRACY          CLEAR     70  65  82 SW16      30.04F
SLAYTON        CLEAR     65  63  90 S7        30.08F
$$
MNZ065>067-074>077-082>085-091>093-261100-
   South Central Minnesota

CITY           SKY/WX    TMP DP  RH WIND       PRES   REMARKS
MANKATO        CLEAR     66  61  82 S5        30.06S
NEW ULM        CLEAR     66  64  94 S5        30.05S
ST JAMES       CLEAR     63  61  94 CALM      30.07S
FAIRMONT       CLEAR     64  59  82 S5        30.06F
GLENCOE        CLEAR     67  66  96 CALM      30.03S
FARIBAULT      CLEAR     64  63  94 CALM      30.07S
OWATONNA       CLEAR     66  63  88 S5        30.08S
WASECA         CLEAR     63  61  94 S5        30.08F
ALBERT LEA     CLEAR     66  64  94 CALM      30.09S
$$
MNZ078>079-086>088-094>096-261100-
   Southeast Minnesota

CITY           SKY/WX    TMP DP  RH WIND       PRES   REMARKS
ROCHESTER      PTCLDY    63  63 100 SW5       30.09S
RED WING       CLEAR     64  63  94 CALM      30.04S
STANTON        CLEAR     66  63  88 CALM      30.04F
DODGE CENTER   CLEAR     63  61  94 SW6       30.09R
WINONA         CLEAR     63  63 100 CALM      30.06S
AUSTIN         CLEAR     63  61  94 CALM      30.09S
PRESTON        CLEAR     63  61  94 W5        30.09S
$$
ABBREVIATIONS USED IN REMARKS
   TC - TEMPERATURES IN CELSIUS
  WCI - WIND CHILL INDEX
   HX - HEAT INDEX
  VSB - VISIBILITY
$$




USA.gov is the U.S. government's official web portal to all federal, state and local government web resources and services.